Location: Edisto_Beach
(32.4790°N, 80.3350°W)
Time: 10:10:27
(UTC-04:00)

Amateur Radio Satellites - All Passes

Search period start: 24 March 2017 09:40
Search period end: 25 March 2017 09:40
Location: Edisto_Beach, 32.4790°N, 80.3350°W

Satellite Date Start Highest point End Downlink Frequencies (MHz)
Time Altitude Azimuth
BEESAT 2 24 Mar 09:41:58 09:45:59 61° 61° (ENE) 09:49:56 435.950
FO-29 24 Mar 09:48:42 09:54:14 22° 64° (ENE) 09:59:37 435.910
Oscar 11 24 Mar 09:49:21 09:53:23 39° 99° (E) 09:57:23 .
ZACube-1 24 Mar 09:51:40 09:55:50 56° 100° (E) 09:59:54 437.345
PCSat 24 Mar 09:54:02 09:58:33 28° 107° (ESE) 10:03:04 145.827
JUGNU 24 Mar 10:06:24 10:10:47 22° 173° (S) 10:15:12 437.505
AAUSAT CUBESAT 2 24 Mar 10:09:25 10:13:12 35° 286° (WNW) 10:17:00 437.432
TIGRISAT 24 Mar 10:14:45 10:18:59 35° 73° (ENE) 10:23:14 435.000
SEEDS 24 Mar 10:18:17 10:20:28 14° 291° (WNW) 10:22:40 437.485
DELFI C3 24 Mar 10:18:18 10:21:28 23° 96° (E) 10:24:39 145.870
AO-73 24 Mar 10:21:42 10:25:52 65° 283° (WNW) 10:29:58 145.935
UNISAT 6 24 Mar 10:23:47 10:28:17 48° 74° (ENE) 10:32:48 437.425
PRISM 24 Mar 10:24:55 10:28:55 71° 257° (WSW) 10:33:00 437.425
UWE-3 24 Mar 10:41:55 10:44:57 19° 291° (WNW) 10:47:57 435.000/436.395/437.385
YUBILEINY 24 Mar 10:50:49 10:55:33 15° 292° (WNW) 11:00:20 435.215
HO-68 24 Mar 10:54:01 10:57:38 15° 301° (WNW) 11:01:15 435.675
AIST 2D 24 Mar 11:03:23 11:04:32 11° 69° (ENE) 11:05:40 435.315
NANOSAT C BR1 24 Mar 11:25:58 11:28:14 14° 68° (ENE) 11:30:30 145.865
Oscar 11 24 Mar 11:26:55 11:29:07 14° 292° (WNW) 11:31:20 .
EO-79 24 Mar 11:28:19 11:31:03 17° 69° (ENE) 11:33:47 145.935-145.965
FO-29 24 Mar 11:30:41 11:38:32 71° 258° (WSW) 11:46:09 435.910
PCSat 24 Mar 11:36:58 11:41:46 32° 302° (WNW) 11:46:35 145.827
RS-15 24 Mar 11:41:18 11:48:05 17° 98° (E) 11:54:57 29.354- 29.394
ESTCUBE 1 24 Mar 11:45:07 11:47:32 14° 94° (E) 11:49:55 437.505/2401.250
TIGRISAT 24 Mar 11:52:26 11:55:41 18° 265° (W) 11:58:56 435.000
DELFI C3 24 Mar 11:53:10 11:56:05 20° 289° (WNW) 11:59:00 145.870
POLYITAN 1 24 Mar 11:54:19 11:58:13 34° 73° (ENE) 12:02:06 437.675
JUGNU 24 Mar 11:54:36 11:59:13 23° 183° (S) 12:03:51 437.505
QB50P2 24 Mar 11:58:38 12:02:40 42° 74° (ENE) 12:06:44 145.880/145.840
UNISAT 6 24 Mar 12:02:57 12:05:10 13° 267° (W) 12:07:23 437.425
SRMSAT 24 Mar 12:04:33 12:08:42 19° 170° (S) 12:12:51 437.500
DUCHIFAT 1 24 Mar 12:14:46 12:18:52 50° 75° (ENE) 12:23:00 145.980
AIST 2D 24 Mar 12:34:14 12:37:24 31° 262° (W) 12:40:35 435.315
SPROUT 24 Mar 12:36:57 12:38:51 13° 93° (E) 12:40:44 437.525
LO-87 24 Mar 12:39:59 12:43:28 44° 285° (WNW) 12:46:57 145.935 - 145.965
BUGSAT 1 24 Mar 12:41:44 12:45:28 32° 73° (ENE) 12:49:14 437.445
NANOSAT C BR1 24 Mar 12:59:36 13:03:34 38° 261° (W) 13:07:33 145.865
EO-79 24 Mar 13:02:42 13:06:31 32° 262° (W) 13:10:22 145.935-145.965
VELOX 1 24 Mar 13:07:26 13:11:34 36° 98° (E) 13:15:40 145.980
Gurwin Techsat 1B 24 Mar 13:16:50 13:19:31 14° 65° (ENE) 13:22:13 435.225
ESTCUBE 1 24 Mar 13:20:13 13:24:26 40° 286° (WNW) 13:28:39 437.505/2401.250
Oscar 19 24 Mar 13:20:56 13:25:13 28° 70° (ENE) 13:29:32 437.125/150
POLYITAN 1 24 Mar 13:31:32 13:34:02 15° 266° (W) 13:36:33 437.675
QB50P2 24 Mar 13:36:54 13:38:36 12° 267° (W) 13:40:19 145.880/145.840
UKube-1 24 Mar 13:38:53 13:42:13 21° 96° (E) 13:45:32 .
JUGNU 24 Mar 13:43:57 13:47:38 17° 193° (SSW) 13:51:18 437.505
RS-15 24 Mar 13:46:49 13:58:41 86° 115° (ESE) 14:11:05 29.354- 29.394
50 SAT 24 Mar 13:49:03 13:52:34 83° 98° (E) 13:56:04 437.505
SRMSAT 24 Mar 13:52:34 13:57:17 24° 180° (S) 14:02:00 437.500
SPROUT 24 Mar 14:10:52 14:14:53 40° 286° (WNW) 14:18:53 437.525
BUGSAT 1 24 Mar 14:18:13 14:20:50 16° 265° (W) 14:23:29 437.445
DX 1 24 Mar 14:28:49 14:33:09 60° 285° (WNW) 14:37:27 434.975-435.025
VELOX 1 24 Mar 14:44:55 14:47:40 16° 292° (WNW) 14:50:25 145.980
Gurwin Techsat 1B 24 Mar 14:53:39 14:58:52 60° 258° (WSW) 15:04:09 435.225
Oscar 19 24 Mar 15:00:08 15:04:25 27° 263° (W) 15:08:42 437.125/150
ITAMSAT 1 24 Mar 15:02:33 15:06:43 25° 68° (ENE) 15:10:53 435.822/435.867
AO-7 24 Mar 15:05:33 15:12:51 35° 63° (ENE) 15:20:05 .
UKube-1 24 Mar 15:14:35 15:18:08 25° 289° (WNW) 15:21:40 .
NO-84 24 Mar 15:33:51 15:36:49 28° 45° (NE) 15:40:01 435.350 FM
SO-50 24 Mar 15:36:06 15:40:43 63° 115° (ESE) 15:45:18 436.795
SRMSAT 24 Mar 15:41:40 15:45:53 20° 190° (S) 15:50:04 437.500
BEESAT 24 Mar 15:59:10 16:03:51 56° 101° (E) 16:08:30 436.000
RS-15 24 Mar 16:02:59 16:12:47 28° 319° (NW) 16:22:52 29.354- 29.394
ITUPSAT 1 24 Mar 16:13:41 16:18:27 81° 103° (ESE) 16:23:12 437.325
MOZHAYETS 4 24 Mar 16:37:27 16:41:57 59° 100° (E) 16:46:26
ITAMSAT 1 24 Mar 16:41:18 16:45:57 32° 262° (W) 16:50:38 435.822/435.867
O/OREOS (USA 219) 24 Mar 16:45:04 16:46:46 12° 98° (E) 16:48:30 437.305
AO-7 24 Mar 16:57:26 17:05:18 45° 259° (WSW) 17:13:11 .
NO-84 24 Mar 17:11:40 17:14:16 19° 235° (SW) 17:17:02 435.350 FM
SO-50 24 Mar 17:19:21 17:21:33 13° 311° (NW) 17:23:44 436.795
STARS 24 Mar 17:21:00 17:23:05 13° 94° (E) 17:25:11 437.465
CUBESAT XI-V 24 Mar 17:23:37 17:27:36 28° 97° (E) 17:31:35 437.345
SRMSAT 24 Mar 17:33:32 17:34:22 10° 199° (SSW) 17:35:13 437.500
BEESAT 24 Mar 17:39:12 17:41:05 12° 295° (WNW) 17:42:57 436.000
LilacSat-2 24 Mar 17:46:51 17:48:13 12° 69° (ENE) 17:49:35 437.200
XW-2F 24 Mar 17:49:48 17:51:04 11° 69° (ENE) 17:52:21 145.980 - 146.000
XW-2D 24 Mar 18:12:12 18:15:20 25° 73° (ENE) 18:18:28 145.860 - 145.880
KKS-1 24 Mar 18:12:34 18:16:58 56° 285° (WNW) 18:21:19 437.445
CUTE-I 24 Mar 18:14:04 18:18:44 31° 70° (ENE) 18:23:25 437.470
MOZHAYETS 4 24 Mar 18:17:38 18:18:33 11° 294° (WNW) 18:19:27
XW-2B 24 Mar 18:17:54 18:21:11 28° 73° (ENE) 18:24:29 145.730 - 145.750
NUDT-PHONESAT 24 Mar 18:20:12 18:23:13 23° 73° (ENE) 18:26:15 437.300
O/OREOS (USA 219) 24 Mar 18:21:20 18:25:40 46° 292° (WNW) 18:30:03 437.305
KAITUO 1B 24 Mar 18:24:22 18:27:33 27° 73° (ENE) 18:30:45 145.475/437.950
XW-2C 24 Mar 18:27:40 18:31:14 38° 75° (ENE) 18:34:48 145.795 - 145.815
RS-15 24 Mar 18:29:27 18:31:54 11° 354° (N) 18:34:20 29.354- 29.394
M-CUBED/EXP-1 PRIME 24 Mar 18:30:00 18:31:11 11° 97° (E) 18:32:22 437.505
DOVE 4 24 Mar 18:44:54 18:49:24 89° 270° (W) 18:54:14 437.250
STARS 24 Mar 18:55:24 18:59:34 42° 287° (WNW) 19:03:42 437.465
CUBESAT XI-V 24 Mar 19:01:11 19:04:47 23° 290° (WNW) 19:08:24 437.345
YUBILEINY 24 Mar 19:05:33 19:13:16 34° 76° (ENE) 19:20:57 435.215
XW-2A 24 Mar 19:09:14 19:11:02 14° 70° (ENE) 19:12:51 145.665 - 145.685
LilacSat-2 24 Mar 19:18:33 19:22:07 36° 262° (W) 19:25:40 437.200
XW-2F 24 Mar 19:21:19 19:24:50 36° 261° (W) 19:28:22 145.980 - 146.000
HO-68 24 Mar 19:27:20 19:33:54 41° 68° (ENE) 19:40:27 435.675
SEEDS 24 Mar 19:29:47 19:32:05 15° 69° (ENE) 19:34:21 437.485
CUTE 1.7 + AOD 2 24 Mar 19:31:05 19:34:29 24° 72° (ENE) 19:37:54 437.475
XW-2D 24 Mar 19:47:02 19:49:28 16° 265° (W) 19:51:55 145.860 - 145.880
XW-2B 24 Mar 19:53:17 19:55:23 14° 266° (W) 19:57:29 145.730 - 145.750
CUTE-I 24 Mar 19:54:15 19:58:42 26° 263° (W) 20:03:10 437.470
NUDT-PHONESAT 24 Mar 19:54:39 19:57:04 16° 265° (W) 19:59:30 437.300
UWE-3 24 Mar 19:58:17 20:00:53 15° 68° (ENE) 20:03:28 435.000/436.395/437.385
KAITUO 1B 24 Mar 19:59:28 20:01:33 14° 265° (W) 20:03:39 145.475/437.950
M-CUBED/EXP-1 PRIME 24 Mar 20:01:14 20:05:50 62° 289° (WNW) 20:10:26 437.505
XW-2C 24 Mar 20:05:11 20:05:32 10° 267° (W) 20:05:55 145.795 - 145.815
CUBEBUG 2 24 Mar 20:24:56 20:29:31 50° 75° (ENE) 20:34:07 437.445
PCSat 24 Mar 20:28:36 20:34:03 77° 65° (ENE) 20:39:27 145.827
STRAND 1 24 Mar 20:35:28 20:40:34 66° 102° (ESE) 20:45:37 437.568
Oscar 11 24 Mar 20:40:29 20:43:21 18° 70° (ENE) 20:46:14 .
XW-2A 24 Mar 20:40:43 20:43:33 23° 263° (W) 20:46:22 145.665 - 145.685
ZACube-1 24 Mar 20:42:47 20:46:34 26° 72° (ENE) 20:50:20 437.345
RS-15 24 Mar 20:44:01 20:52:11 19° 32° (NNE) 21:00:08 29.354- 29.394
AAUSAT CUBESAT 2 24 Mar 20:54:13 20:58:18 76° 77° (ENE) 21:02:24 437.432
YUBILEINY 24 Mar 21:02:02 21:10:02 43° 272° (W) 21:18:03 435.215
SEEDS 24 Mar 21:03:37 21:07:25 35° 262° (W) 21:11:14 437.485
CUTE 1.7 + AOD 2 24 Mar 21:07:03 21:10:13 21° 264° (W) 21:13:24 437.475
AO-73 24 Mar 21:11:47 21:16:12 52° 75° (ENE) 21:20:35 145.935
HO-68 24 Mar 21:15:24 21:21:34 31° 262° (W) 21:27:47 435.675
AO-85 24 Mar 21:18:06 21:22:19 37° 114° (ESE) 21:26:17 145.980
ISS 24 Mar 21:23:02 21:26:12 57° 133° (SE) 21:29:24 437.550
UWE-3 24 Mar 21:32:27 21:36:54 44° 261° (W) 21:41:21 435.000/436.395/437.385
Tancredo 1 24 Mar 21:32:55 21:36:04 88° 341° (NNW) 21:39:14 437.200
CUBEBUG 2 24 Mar 22:04:10 22:06:19 13° 268° (W) 22:08:28 437.445
PRISM 24 Mar 22:11:19 22:14:32 21° 96° (E) 22:17:45 437.425
Oscar 11 24 Mar 22:15:24 22:19:13 31° 263° (W) 22:23:03 .
PCSat 24 Mar 22:16:15 22:16:41 10° 258° (WSW) 22:17:07 145.827
STRAND 1 24 Mar 22:17:17 22:19:06 12° 296° (WNW) 22:20:56 437.568
ZACube-1 24 Mar 22:19:07 22:22:44 23° 264° (W) 22:26:20 437.345
UNISAT 6 24 Mar 22:21:59 22:24:09 13° 93° (E) 22:26:16 437.425
DELFI C3 24 Mar 22:32:49 22:36:42 67° 259° (W) 22:40:36 145.870
FO-29 24 Mar 22:48:43 22:52:29 18° 92° (E) 22:56:02 435.910
AO-73 24 Mar 22:51:14 22:52:37 11° 268° (W) 22:54:01 145.935
RS-15 24 Mar 22:55:26 23:07:38 67° 58° (ENE) 23:19:11 29.354- 29.394
AO-85 24 Mar 22:59:45 23:02:45 18° 306° (NW) 23:05:40 145.980
ISS 24 Mar 23:01:13 23:02:55 13° 328° (NNW) 23:04:38 437.550
LO-87 24 Mar 23:11:35 23:14:44 30° 74° (ENE) 23:17:56 145.935 - 145.965
BEESAT 3 24 Mar 23:17:45 23:21:36 70° 116° (ESE) 23:25:32 437.485
BEESAT 2 24 Mar 23:29:09 23:32:38 31° 112° (ESE) 23:36:11 435.950
PRISM 24 Mar 23:46:24 23:49:41 23° 289° (WNW) 23:52:59 437.425
TIGRISAT 24 Mar 23:47:10 23:51:30 56° 285° (WNW) 23:55:42 435.000
UNISAT 6 24 Mar 23:56:54 00:01:00 39° 287° (WNW) 00:05:01 437.425
VELOX 1 25 Mar 00:00:58 00:04:02 19° 69° (ENE) 00:07:06 145.980
AIST 2D 25 Mar 00:03:59 00:06:50 23° 97° (E) 00:09:39 435.315
DUCHIFAT 1 25 Mar 00:05:46 00:06:58 11° 93° (E) 00:08:09 145.980
SO-50 25 Mar 00:12:52 00:15:48 17° 51° (NE) 00:18:42 436.795
ESTCUBE 1 25 Mar 00:14:31 00:18:59 80° 258° (WSW) 00:23:29 437.505/2401.250
50 SAT 25 Mar 00:19:34 00:21:27 14° 70° (ENE) 00:23:21 437.505
UKube-1 25 Mar 00:31:21 00:32:13 10° 66° (ENE) 00:33:04 .
FO-29 25 Mar 00:32:17 00:37:55 45° 289° (WNW) 00:43:01 435.910
LO-87 25 Mar 00:47:06 00:48:15 11° 267° (W) 00:49:23 145.935 - 145.965
NANOSAT C BR1 25 Mar 00:48:11 00:52:15 45° 99° (E) 00:56:15 145.865
EO-79 25 Mar 00:51:24 00:55:34 55° 101° (E) 00:59:40 145.935-145.965
SPROUT 25 Mar 00:58:54 01:03:11 80° 78° (ENE) 01:07:30 437.525
BEESAT 2 25 Mar 01:07:49 01:10:27 17° 307° (NW) 01:13:07 435.950
RS-15 25 Mar 01:09:20 01:19:04 30° 257° (WSW) 01:28:30 29.354- 29.394
POLYITAN 1 25 Mar 01:18:53 01:23:05 64° 284° (WNW) 01:27:14 437.675
DX 1 25 Mar 01:19:22 01:23:38 62° 76° (ENE) 01:27:56 434.975-435.025
QB50P2 25 Mar 01:23:29 01:27:36 51° 285° (WNW) 01:31:40 145.880/145.840
VELOX 1 25 Mar 01:36:22 01:40:13 30° 262° (W) 01:44:07 145.980
AIST 2D 25 Mar 01:37:56 01:39:48 14° 289° (WNW) 01:41:39 435.315
Oscar 19 25 Mar 01:38:11 01:40:50 14° 93° (E) 01:43:30 437.125/150
DUCHIFAT 1 25 Mar 01:38:48 01:42:48 44° 286° (WNW) 01:46:46 145.980
50 SAT 25 Mar 01:51:31 01:54:15 22° 263° (W) 01:57:02 437.505
SO-50 25 Mar 01:52:10 01:56:25 43° 246° (WSW) 02:00:39 436.795
BUGSAT 1 25 Mar 02:02:41 02:06:52 77° 285° (WNW) 02:10:58 437.445
UKube-1 25 Mar 02:03:31 02:07:43 54° 259° (W) 02:11:57 .
NANOSAT C BR1 25 Mar 02:25:57 02:27:30 12° 293° (WNW) 02:29:01 145.865
O/OREOS (USA 219) 25 Mar 02:58:34 03:00:34 13° 59° (ENE) 03:02:33 437.305
BEESAT 25 Mar 03:00:59 03:05:24 38° 72° (ENE) 03:09:49 436.000
Gurwin Techsat 1B 25 Mar 03:14:26 03:19:47 80° 103° (ESE) 03:25:05 435.225
Oscar 19 25 Mar 03:15:22 03:20:23 53° 286° (WNW) 03:25:24 437.125/150
AO-7 25 Mar 03:15:27 03:18:17 12° 92° (E) 03:21:08 .
ITUPSAT 1 25 Mar 03:15:38 03:20:18 55° 74° (ENE) 03:24:59 437.325
ITAMSAT 1 25 Mar 03:21:47 03:23:32 12° 93° (E) 03:25:18 435.822/435.867
MOZHAYETS 4 25 Mar 03:34:48 03:38:55 33° 72° (ENE) 03:43:01
ISS 25 Mar 03:56:11 03:57:02 11° 29° (NNE) 03:57:53 437.550
Tancredo 1 25 Mar 04:04:06 04:05:43 13° 32° (NNE) 04:07:21 437.200
CUBESAT XI-V 25 Mar 04:23:26 04:26:17 17° 68° (ENE) 04:29:08 437.345
O/OREOS (USA 219) 25 Mar 04:35:47 04:40:16 53° 254° (WSW) 04:44:43 437.305
BEESAT 25 Mar 04:40:09 04:43:14 17° 265° (W) 04:46:20 436.000
ITUPSAT 1 25 Mar 04:56:41 04:58:22 12° 267° (W) 05:00:03 437.325
Gurwin Techsat 1B 25 Mar 04:58:01 04:58:58 10° 297° (WNW) 04:59:55 435.225
ITAMSAT 1 25 Mar 04:58:12 05:03:20 63° 286° (WNW) 05:08:26 435.822/435.867
AO-7 25 Mar 05:03:36 05:11:56 83° 107° (ESE) 05:20:14 .
KKS-1 25 Mar 05:05:32 05:09:57 74° 76° (ENE) 05:14:26 437.445
MOZHAYETS 4 25 Mar 05:12:53 05:16:04 18° 265° (W) 05:19:16
ISS 25 Mar 05:30:36 05:33:55 87° 216° (SW) 05:37:12 437.550
Tancredo 1 25 Mar 05:38:57 05:42:07 56° 227° (SW) 05:45:15 437.200
STARS 25 Mar 05:46:42 05:51:07 88° 264° (W) 05:55:34 437.465
CUBESAT XI-V 25 Mar 05:59:03 06:03:18 37° 262° (W) 06:07:34 437.345
CUTE-I 25 Mar 06:36:29 06:40:02 18° 94° (E) 06:43:33 437.470
M-CUBED/EXP-1 PRIME 25 Mar 06:43:06 06:46:37 75° 72° (ENE) 06:50:26 437.505
DOVE 4 25 Mar 06:48:14 06:53:11 39° 97° (E) 06:58:01 437.250
NO-84 25 Mar 06:49:19 06:51:32 19° 125° (SE) 06:53:41 435.350 FM
LilacSat-2 25 Mar 06:56:17 06:59:35 29° 97° (E) 07:02:53 437.200
XW-2F 25 Mar 06:58:03 07:01:18 28° 97° (E) 07:04:32 145.980 - 146.000
AO-7 25 Mar 06:58:27 07:03:40 19° 303° (WNW) 07:08:56 .
XW-2D 25 Mar 07:22:30 07:26:14 70° 100° (E) 07:29:57 145.860 - 145.880
NUDT-PHONESAT 25 Mar 07:28:12 07:31:51 62° 100° (E) 07:35:28 437.300
XW-2B 25 Mar 07:28:22 07:32:08 82° 100° (E) 07:35:52 145.730 - 145.750
KAITUO 1B 25 Mar 07:33:18 07:37:00 75° 101° (E) 07:40:40 145.475/437.950
AO-85 25 Mar 07:33:20 07:37:18 75° 242° (WSW) 07:41:25 145.980
XW-2C 25 Mar 07:38:30 07:42:14 69° 284° (WNW) 07:45:56 145.795 - 145.815
BEESAT 3 25 Mar 07:41:04 07:42:08 11° 49° (NE) 07:43:13 437.485
STRAND 1 25 Mar 07:46:36 07:51:38 59° 74° (ENE) 07:56:42 437.568
YUBILEINY 25 Mar 08:00:17 08:08:28 46° 89° (E) 08:16:37 435.215
JUGNU 25 Mar 08:04:21 08:07:17 14° 165° (SSE) 08:10:14 437.505
XW-2A 25 Mar 08:06:55 08:09:45 25° 97° (E) 08:12:32 145.665 - 145.685
CUTE-I 25 Mar 08:15:09 08:20:13 45° 288° (WNW) 08:25:15 437.470
CUBEBUG 2 25 Mar 08:22:19 08:24:36 14° 93° (E) 08:26:49 437.445
DOVE 4 25 Mar 08:26:35 08:30:30 21° 292° (WNW) 08:34:23 437.250
NO-84 25 Mar 08:26:59 08:28:58 17° 318° (NW) 08:30:58 435.350 FM
LilacSat-2 25 Mar 08:31:40 08:33:34 14° 291° (WNW) 08:35:28 437.200
XW-2F 25 Mar 08:33:13 08:35:09 14° 290° (WNW) 08:37:06 145.980 - 146.000
AAUSAT CUBESAT 2 25 Mar 08:41:55 08:44:35 16° 95° (E) 08:47:14 437.432
HO-68 25 Mar 08:46:50 08:53:58 66° 103° (ESE) 09:01:04 435.675
SEEDS 25 Mar 08:51:25 08:55:30 50° 100° (E) 08:59:34 437.485
CUTE 1.7 + AOD 2 25 Mar 08:55:04 08:59:18 88° 282° (WNW) 09:03:31 437.475
AO-73 25 Mar 09:06:20 09:08:14 13° 93° (E) 09:10:07 145.935
BEESAT 3 25 Mar 09:16:08 09:20:04 57° 245° (WSW) 09:23:58 437.485
PCSat 25 Mar 09:24:07 09:27:49 19° 105° (ESE) 09:31:33 145.827
UWE-3 25 Mar 09:26:46 09:30:57 51° 99° (E) 09:35:01 435.000/436.395/437.385
BEESAT 2 25 Mar 09:28:03 09:32:05 66° 62° (ENE) 09:36:04 435.950
STRAND 1 25 Mar 09:28:58 09:31:06 12° 267° (W) 09:33:14 437.568
